Location: Eurasberg
(48.3353°N, 11.0839°E)
Time: 13:32:08
(UTC+00:00)

Timation 1 Rocket - Pass Details

Date: 22 April 2026
Orbit: 895 x 908 km, 70.0° (Epoch: 14 May)

Event Time Altitude Azimuth Distance (km) Brightness Sun altitude
Rises 03:07:39 0° 296° (WNW) 3,542 7.1 -10.6°
Maximum altitude 03:13:59 10° 345° (NNW) 2,606 7.0 -9.7°
Drops below altitude 10° 03:14:02 10° 346° (NNW) 2,606 7.0 -9.7°
Sets 03:20:20 0° 34° (NE) 3,547 8.7 -8.8°
